Location: STAR School
(35.3054°N, 111.2976°W)
Time: 13:58:34
(UTC-07:00)

Vanguard 1 - Pass Details

Date: 27 October 2019
Orbit: 652 x 3831 km, 34.2° (Epoch: 16 November)

Event Time Altitude Azimuth Distance (km) Brightness Sun altitude
Rises 20:18:25 0° 276° (W) 3,860 14.2 -33.7°
Reaches altitude 10° 20:20:35 10° 275° (W) 3,147 13.5 -34.2°
Maximum altitude 20:28:35 79° 190° (S) 1,814 11.1 -35.8°
Enters shadow 20:29:50 72° 138° (SE) 1,958 11.2 -36.0°
